Temperature
16 16 16 16 19 20 20 20 19 18 18 17 16 17 18 18 18 17 12 12 12 12 12 12 12 12 12 13 13 13 13 13 13 13 13 13 13 13 13 13 14 14 14 14 14 14 14 14 14
16 16 16 17 20 20 20 19 18 18 17 15 15 15 17 16 13 12 12 12 12 12 12 12 12 12 12 12 12 13 13 13 13 13 13 13 13 13 13 13 13 13 13 14 14 14 14 14 14
15 16 16 19 19 20 20 19 18 16 15 15 15 14 15 14 11 11 11 12 12 12 12 12 12 12 12 12 12 12 12 12 12 13 13 13 13 13 13 13 13 13 13 13 13 13 14 14 14
15 15 16 18 18 18 18 18 17 16 15 14 15 15 12 11 11 11 12 11 11 11 11 12 12 12 12 12 12 12 12 12 12 12 12 12 12 12 12 13 13 13 13 13 13 13 13 13 13
15 16 18 18 18 17 17 16 15 17 16 15 14 15 13 11 11 11 11 11 11 11 11 11 11 12 12 12 12 12 12 12 12 12 12 12 12 12 12 12 12 12 12 12 12 13 13 13 13
15 17 18 18 18 17 16 15 15 16 15 14 14 14 12 10 11 11 11 11 10 11 11 11 11 11 11 11 11 11 11 11 11 11 11 12 12 12 12 12 12 12 12 12 12 12 12 12 12
16 17 18 18 17 17 16 14 15 16 15 14 13 14 11 10 10 10 10 10 10 10 10 10 11 11 11 11 11 11 11 11 11 11 11 11 11 11 11 11 11 11 11 11 12 12 12 12 12
14 17 16 17 17 17 15 13 13 14 14 11 11 14 12 9 10 9 9 10 10 10 10 10 10 10 10 11 11 11 11 11 11 11 11 11 11 11 11 11 11 11 11 11 11 11 11 11 12
13 16 16 16 16 16 14 13 12 10 11 10 9 10 9 9 9 9 9 9 9 9 10 10 10 10 10 10 10 10 10 10 10 10 10 10 10 10 10 11 10 11 11 11 11 11 11 11 11
14 15 15 14 15 14 13 12 11 11 11 10 9 8 9 9 9 9 9 9 9 9 9 9 9 9 10 10 10 10 10 9 10 10 10 10 10 10 10 10 10 10 10 10 10 10 10 11 11
13 14 13 12 11 12 12 11 10 12 12 10 9 8 8 8 8 8 8 8 8 8 9 9 9 9 9 9 9 9 9 9 9 9 9 9 9 9 9 9 9 10 10 10 10 10 10 10 10
12 11 11 11 9 10 11 10 9 9 9 8 8 8 8 7 8 8 8 7 7 8 8 8 8 8 9 9 9 8 8 8 8 9 9 9 9 9 9 9 9 9 9 9 9 9 9 9 9
11 11 9 9 8 8 9 9 9 8 7 7 7 7 7 7 7 7 7 7 7 7 8 8 8 8 8 8 8 8 8 8 8 8 8 8 8 8 8 8 8 8 8 9 9 9 9 9 9
10 10 9 9 9 8 9 8 8 7 6 6 6 6 6 6 6 6 6 6 7 7 7 7 7 7 7 7 7 7 7 7 7 7 7 7 8 8 8 8 8 8 8 8 8 8 8 8 8
9 10 10 9 9 8 9 9 8 7 6 6 5 5 5 5 5 5 6 6 6 6 6 7 7 7 7 7 7 7 7 7 7 7 7 7 7 7 7 7 7 7 8 8 7 8 8 8 8
10 11 11 10 9 8 9 11 8 6 5 5 5 4 4 4 4 4 5 5 5 6 6 6 6 6 6 6 6 6 6 6 6 6 6 6 6 6 6 7 7 7 7 7 7 7 7 7 7
11 11 11 10 8 8 9 10 8 5 5 5 5 4 3 3 3 4 4 4 5 5 5 5 5 5 5 5 5 5 5 5 5 6 5 6 6 6 6 6 6 6 6 6 6 6 6 6 7
11 11 10 10 8 8 8 8 7 5 4 5 4 4 3 3 3 3 3 4 4 4 4 4 5 5 5 5 5 5 5 5 5 5 5 5 5 5 5 5 5 5 5 5 5 6 6 6 6
9 9 10 9 7 7 8 8 7 5 4 4 4 3 3 2 2 2 3 3 3 3 4 4 4 4 4 4 4 4 4 4 4 4 4 4 4 4 4 5 5 5 5 5 5 5 5 5 5
8 8 9 8 6 7 7 6 6 5 4 3 3 3 2 1 1 2 2 2 3 3 3 3 3 3 3 3 3 3 3 3 4 4 3 4 4 4 4 4 4 4 4 4 4 4 4 4 4
7 8 8 7 6 5 6 7 6 5 3 2 2 1 1 0 -0 0 1 2 2 2 2 2 2 2 3 3 3 3 3 3 3 3 3 3 3 3 3 3 3 3 4 4 4 4 4 4 4
7 6 6 5 6 7 6 8 7 5 4 3 1 1 -0 -1 -1 -0 0 1 1 1 1 1 2 2 2 2 2 2 2 2 2 2 2 2 2 2 2 3 3 3 3 3 3 3 3 3 3
5 4 5 5 5 6 6 6 8 4 4 3 2 0 -1 -1 -1 -1 -1 -0 -0 0 0 1 1 1 1 1 1 1 1 1 1 2 2 2 2 2 2 2 2 2 2 2 2 3 3 2 2
4 4 4 4 5 6 5 6 7 5 3 3 1 -1 -2 -2 -2 -2 -2 -1 -1 -1 -1 -0 -0 0 0 0 0 0 0 1 1 1 1 1 1 1 1 1 1 1 1 2 2 2 2 2 2
4 5 6 6 6 6 3 4 5 3 1 0 -0 -1 -2 -3 -3 -2 -2 -2 -2 -2 -1 -1 -1 -0 -0 -0 -0 -0 -0 -0 -0 -0 -0 -0 -0 0 0 0 1 1 1 1 1 1 1 1 2
3 5 6 6 7 7 3 4 4 0 -1 -2 -3 -3 -3 -4 -3 -3 -3 -3 -3 -2 -2 -2 -1 -1 -1 -1 -1 -1 -1 -1 -1 -1 -1 -1 -1 -0 -0 -0 -0 -0 0 0 0 1 1 1 1
3 3 3 4 2 3 5 4 2 -0 -1 -2 -3 -3 -4 -4 -4 -4 -4 -4 -3 -3 -3 -3 -2 -2 -2 -2 -2 -1 -1 -1 -1 -1 -1 -1 -1 -1 -1 -1 -1 -1 -0 -0 -0 -0 0 0 0
2 2 2 3 4 4 5 4 4 1 -0 -1 -2 -3 -4 -5 -5 -5 -5 -4 -4 -4 -4 -3 -3 -3 -2 -2 -2 -2 -2 -2 -2 -2 -2 -2 -2 -2 -1 -1 -1 -1 -1 -1 -1 -1 -0 -0 -0
1 1 1 2 2 3 4 4 1 0 -1 -1 -2 -4 -5 -5 -5 -5 -5 -5 -5 -4 -4 -4 -4 -3 -3 -3 -3 -3 -3 -3 -3 -3 -2 -2 -2 -2 -2 -2 -2 -2 -2 -2 -2 -1 -1 -1 -1
0 0 1 2 2 1 2 3 -1 -2 -2 -3 -4 -5 -6 -6 -6 -6 -6 -5 -5 -5 -5 -5 -5 -4 -4 -4 -4 -4 -4 -4 -3 -3 -3 -3 -3 -3 -2 -2 -2 -2 -2 -2 -2 -2 -2 -2 -1
Wind_Speed
1 1 2 2 4 4 7 5 3 4 3 1 1 1 2 1 1 2 4 4 4 6 6 5 5 6 8 8 9 9 9 8 8 8 9 9 9 9 9 10 10 10 10 11 11 12 12 12 12
1 1 2 3 6 8 6 6 6 4 2 3 2 1 1 1 3 3 3 3 5 6 6 5 6 7 8 8 9 8 8 8 8 8 9 9 9 9 9 9 9 9 10 10 11 11 11 12 12
2 0 3 4 6 8 5 3 5 3 3 3 2 1 0 1 3 2 3 4 5 6 5 6 7 8 8 9 9 8 8 9 8 9 9 9 9 9 9 9 9 9 9 10 10 10 11 11 11
3 3 2 5 9 7 5 2 3 5 4 2 2 3 2 3 2 2 3 4 6 5 5 7 8 9 9 9 9 8 8 9 9 9 9 9 9 9 9 9 9 9 8 9 9 9 9 10 10
2 3 5 7 9 6 4 3 4 4 4 3 3 2 3 2 3 3 4 5 5 5 5 6 7 8 9 9 9 9 9 9 10 10 10 9 9 8 9 8 8 8 8 8 8 9 9 9 9
4 4 7 10 10 6 5 4 4 5 4 3 3 3 2 3 3 4 4 5 5 5 5 6 7 8 9 9 9 9 9 10 10 10 10 10 10 9 8 8 8 8 8 8 8 8 8 8 8
4 5 7 9 9 8 5 5 6 6 5 4 2 3 3 3 3 4 5 5 5 5 5 5 6 7 8 9 9 9 9 10 10 10 10 10 10 9 8 8 7 7 7 7 7 7 7 7 7
2 3 6 7 9 8 5 4 2 4 3 1 1 3 2 2 4 5 5 5 5 5 4 4 4 5 5 6 8 9 9 9 9 10 9 9 8 8 8 8 7 6 6 6 6 6 7 7 7
3 5 9 8 7 5 5 5 2 1 3 2 1 2 3 5 6 6 5 4 4 3 3 3 3 3 4 4 5 7 8 8 8 8 8 6 5 5 5 7 7 6 5 5 5 5 6 6 6
4 8 8 3 3 3 4 4 3 4 4 2 1 1 3 6 7 7 6 5 4 2 2 2 2 2 3 3 3 4 4 5 5 5 5 4 4 4 4 6 6 6 5 5 5 4 4 3 3
4 5 4 3 2 2 4 3 2 4 4 4 4 3 4 5 6 6 6 5 4 2 1 1 1 2 2 2 2 3 3 4 4 5 4 4 4 3 3 3 3 4 3 3 3 2 2 1 1
3 3 3 2 2 2 3 3 3 2 2 2 1 4 6 6 6 6 5 4 3 2 1 1 1 1 2 2 2 3 3 3 3 3 4 3 3 3 3 2 2 2 2 1 1 1 1 1 1
5 3 2 1 2 2 2 3 2 2 2 1 2 4 5 6 5 4 3 3 2 2 1 0 1 1 1 2 2 2 3 3 3 3 3 3 2 2 2 2 2 2 2 2 1 0 1 1 1
3 3 2 1 2 2 3 3 3 3 1 1 3 3 3 4 4 3 3 3 2 2 1 0 0 1 1 1 1 2 3 3 3 3 3 2 2 2 1 1 2 2 2 2 1 0 0 0 0
3 3 3 2 3 2 3 5 5 3 2 2 2 2 2 1 2 2 3 3 3 2 1 0 0 1 1 1 1 2 2 3 3 3 3 2 2 2 1 1 1 2 2 2 1 1 0 1 1
3 5 5 3 3 3 6 9 2 1 3 3 2 2 1 1 1 1 1 1 1 1 1 0 0 0 0 1 1 2 2 3 2 2 2 2 2 1 1 0 1 1 1 1 1 1 1 1 1
4 6 7 4 2 3 7 7 1 2 3 3 2 2 2 1 1 1 1 1 1 1 1 0 1 0 0 1 1 1 2 2 2 2 2 1 1 0 0 0 0 1 1 1 1 1 1 2 1
6 7 7 7 2 4 8 8 4 2 3 4 3 3 2 2 2 1 1 1 1 1 0 0 0 1 1 0 1 1 1 1 1 1 1 1 1 0 1 0 1 1 1 1 1 2 1 1 1
5 7 8 6 2 5 9 10 8 5 4 4 3 2 2 2 1 1 1 1 1 1 1 0 0 1 1 0 0 1 1 1 0 0 0 0 0 1 1 1 1 1 2 2 2 2 2 1 1
5 7 7 5 2 5 8 10 7 5 4 3 3 2 2 2 2 2 2 2 1 1 1 1 1 1 1 1 1 2 2 1 1 0 0 0 1 1 1 1 2 2 2 2 2 2 2 2 2
6 7 7 6 5 4 6 8 7 5 3 1 1 1 2 2 2 3 3 2 2 2 2 2 2 1 1 1 1 1 1 1 1 1 1 1 2 2 2 2 2 3 3 3 3 3 4 3 2
5 3 5 5 5 5 3 6 5 5 4 2 1 1 2 2 2 2 3 3 3 3 3 2 2 2 1 1 1 2 2 2 2 2 2 2 2 2 3 3 3 2 2 3 4 4 4 4 3
2 2 4 5 6 7 6 6 5 2 4 3 2 2 2 2 2 3 4 4 3 3 3 3 3 3 2 2 2 3 3 3 2 2 2 2 2 3 3 3 3 3 3 3 4 4 5 5 4
0 1 1 3 4 7 7 8 6 3 2 2 0 1 2 3 3 3 4 4 4 4 3 3 3 3 3 3 2 3 3 3 3 3 3 2 2 3 3 4 4 4 4 4 4 4 5 6 6
1 2 3 3 5 6 2 6 5 1 1 1 2 3 3 3 4 4 5 5 5 6 5 4 4 4 4 4 4 4 4 4 4 4 3 3 3 3 4 4 4 4 5 5 5 5 5 6 7
2 3 4 5 6 5 3 6 1 2 1 1 2 2 3 4 4 5 5 5 6 6 6 5 5 5 5 4 4 4 4 3 3 4 4 4 4 4 5 6 6 6 6 6 6 5 6 5 6
2 3 2 2 3 6 6 3 3 1 0 1 2 2 3 4 5 5 6 6 6 6 7 7 5 5 5 5 5 5 4 4 5 5 5 4 4 5 6 6 6 6 6 6 6 5 6 6 6
2 2 2 3 4 7 6 5 3 2 2 2 2 3 4 5 5 6 6 6 6 7 7 7 6 6 6 6 5 5 5 5 5 5 5 5 6 6 6 6 6 6 6 7 6 6 6 6 6
2 2 3 3 4 5 6 4 1 1 1 2 2 3 4 5 6 6 6 6 6 7 7 7 7 7 6 6 6 6 5 6 5 5 6 6 6 6 6 7 7 7 7 7 7 7 7 7 7
1 3 4 4 5 4 5 5 3 1 1 1 2 3 4 5 6 6 6 6 6 7 7 8 8 8 7 7 7 6 6 6 6 6 6 6 7 6 7 7 7 7 7 7 7 8 8 8 8
Wind_Direction
30 135 194 202 205 217 224 209 196 174 179 161 131 196 208 189 290 68 80 118 126 137 134 130 110 108 103 105 103 101 100 95 92 90 88 85 84 82 82 80 77 76 75 74 74 76 77 77 77
106 170 189 204 225 222 219 211 204 197 132 128 140 182 177 125 45 82 109 115 131 134 132 127 114 110 103 102 99 99 100 99 93 89 87 85 82 80 81 82 79 77 76 77 76 75 77 77 77
132 214 194 198 224 231 214 188 201 172 145 169 159 148 217 97 94 102 87 131 131 127 126 115 114 110 105 101 95 95 94 93 90 88 87 85 83 80 79 79 81 79 79 81 81 79 78 77 77
179 166 186 220 223 230 231 172 155 164 168 181 180 147 122 53 40 64 108 134 130 120 119 114 110 110 108 104 97 95 92 86 84 85 84 82 81 79 77 74 75 76 79 82 84 84 82 79 79
186 190 201 220 227 224 227 228 192 191 179 176 189 172 135 79 53 86 116 126 123 114 106 108 105 107 104 102 98 91 87 83 77 74 72 72 74 74 74 71 71 72 76 81 84 84 83 79 77
174 199 216 224 221 217 221 212 203 212 189 170 187 187 131 96 93 110 122 118 112 108 98 98 96 95 97 96 92 88 83 83 79 74 69 66 66 66 69 70 71 70 73 78 83 83 82 82 79
200 203 227 227 222 222 211 193 209 211 206 193 197 183 145 124 109 125 125 115 104 97 92 91 100 96 91 89 89 87 84 82 80 76 72 69 65 62 63 65 68 70 72 74 78 80 82 81 81
216 201 219 219 221 223 187 175 203 224 210 118 204 210 156 144 138 134 124 114 102 91 86 87 95 99 99 94 88 85 83 83 83 78 74 72 70 66 62 62 63 68 75 78 81 81 82 79 82
208 219 226 217 217 211 172 182 171 153 157 139 106 14 30 126 144 142 134 122 110 90 82 81 88 89 93 96 93 91 88 84 85 82 78 79 77 70 66 57 56 62 72 77 81 82 87 86 87
205 225 230 219 219 196 172 193 178 175 181 191 193 38 84 136 151 157 160 159 150 131 105 79 86 91 93 90 101 104 96 88 80 85 85 80 77 67 63 66 61 58 63 78 78 78 91 104 107
200 226 212 201 210 194 181 183 176 199 211 231 237 203 154 158 165 173 176 174 169 155 121 70 67 97 102 91 94 93 92 86 79 78 72 74 75 71 59 59 63 59 57 78 80 92 94 99 98
189 215 210 202 185 183 188 171 168 212 258 340 263 164 155 165 179 187 187 185 174 167 147 63 32 63 96 100 95 96 91 85 78 76 71 67 62 58 46 35 31 30 25 39 74 90 99 100 123
208 203 196 169 150 183 184 196 200 233 275 16 113 145 165 175 184 190 189 180 182 194 188 10 17 27 61 93 94 94 97 95 89 73 68 69 70 59 47 33 25 18 12 3 7 96 96 96 108
182 174 173 215 210 211 211 232 225 256 256 152 141 160 178 189 193 187 191 197 207 216 242 242 68 29 47 87 103 106 109 109 103 85 70 65 71 70 50 25 18 14 0 344 337 348 140 166 122
167 186 219 225 221 208 214 240 234 249 206 178 171 166 167 196 207 212 217 218 219 225 230 308 134 45 54 84 114 126 123 122 106 98 92 73 61 64 66 38 4 360 348 339 331 338 185 183 181
195 215 229 200 210 212 226 247 204 183 190 208 209 199 206 223 239 253 262 262 243 219 224 345 10 124 51 59 95 131 132 120 112 111 106 85 66 65 60 67 342 332 324 307 270 277 255 228 227
207 230 238 227 196 210 224 247 204 160 198 224 232 234 239 253 293 310 311 295 293 247 217 257 19 22 112 73 81 110 122 114 112 110 105 102 83 26 21 108 268 269 267 259 254 252 254 237 234
227 237 244 241 221 228 233 244 249 218 230 244 248 251 254 263 297 319 320 317 314 307 231 213 157 24 25 104 91 98 111 102 105 107 100 100 95 309 327 232 219 236 226 239 247 245 241 237 223
238 242 254 259 264 248 248 256 258 242 237 245 249 250 259 277 324 3 355 1 359 353 341 291 307 28 47 80 194 210 226 219 157 93 112 117 152 284 299 304 231 234 231 233 235 231 220 229 233
236 247 258 267 271 260 264 266 257 240 227 235 248 257 282 312 353 8 11 14 360 345 327 328 303 296 289 282 282 264 259 237 243 241 191 249 252 257 261 275 255 231 234 230 225 221 229 237 240
243 246 258 278 295 251 276 262 228 210 203 231 278 301 319 332 335 351 355 5 360 347 333 315 311 296 299 312 329 315 257 230 221 232 246 261 250 239 251 251 251 228 225 225 229 229 229 232 240
251 252 261 264 267 258 252 275 221 210 217 228 283 321 326 329 336 345 350 353 357 350 346 339 336 322 315 309 287 272 255 249 255 252 249 258 243 243 244 246 243 240 235 235 235 235 239 230 231
276 315 268 256 252 262 236 254 251 191 238 247 262 294 329 337 338 348 349 349 353 359 360 353 349 346 342 321 295 278 277 274 264 261 250 253 251 246 243 245 247 244 245 244 242 237 234 231 233
280 297 277 238 236 249 235 236 258 202 244 247 321 341 344 351 355 357 359 0 3 3 5 359 354 348 346 336 307 284 277 283 274 263 261 259 256 254 249 246 247 247 247 247 245 242 238 237 236
283 264 264 240 231 249 191 234 256 64 352 309 310 340 353 354 356 358 359 1 1 0 356 353 347 345 341 333 323 301 276 266 263 261 256 260 259 257 255 257 251 249 248 247 244 242 242 242 240
242 245 252 267 266 277 224 238 246 66 18 353 334 333 349 356 355 353 352 352 352 351 350 347 346 340 336 330 322 315 290 268 268 267 262 258 258 258 261 254 254 252 249 245 242 243 242 243 242
207 213 313 289 294 275 252 254 277 133 318 342 344 350 348 349 350 348 349 351 350 347 346 343 337 334 332 326 319 313 305 278 270 272 266 260 262 265 262 256 254 253 250 245 242 243 242 245 244
326 175 191 222 260 266 261 256 259 228 250 280 300 325 336 343 344 346 346 345 344 342 339 340 339 331 328 324 319 313 308 294 279 270 270 266 263 262 259 256 253 250 249 247 242 244 243 243 243
169 193 220 227 253 263 273 271 31 270 256 275 304 326 329 332 334 336 338 339 339 341 342 340 338 333 329 326 320 315 308 300 289 280 276 275 269 263 258 256 255 252 248 245 242 241 240 241 242
240 232 205 234 243 242 266 275 70 1 330 299 308 328 331 332 332 332 334 337 340 341 341 338 336 332 328 324 321 316 310 303 294 287 284 280 273 267 261 258 256 254 253 248 242 241 240 239 241
Height
1513 1514 1516 1519 1519 1516 1514 1514 1515 1517 1519 1522 1523 1523 1521 1522 1524 1529 1530 1527 1529 1531 1533 1534 1536 1537 1537 1538 1539 1539 1540 1540 1541 1541 1542 1542 1542 1542 1542 1542 1542 1543 1543 1543 1543 1543 1543 1543 1543
1513 1515 1518 1519 1514 1514 1513 1512 1516 1517 1520 1523 1524 1524 1523 1525 1527 1528 1527 1527 1529 1531 1533 1534 1535 1537 1537 1539 1539 1540 1540 1541 1541 1541 1542 1542 1542 1542 1542 1542 1542 1543 1543 1543 1543 1543 1543 1543 1544
1513 1515 1518 1515 1512 1509 1510 1513 1515 1520 1522 1523 1523 1524 1525 1526 1527 1527 1527 1528 1529 1531 1533 1534 1535 1536 1537 1538 1539 1539 1540 1540 1541 1541 1541 1542 1542 1542 1542 1542 1543 1543 1543 1543 1543 1543 1544 1544 1544
1514 1517 1517 1514 1512 1512 1511 1514 1517 1520 1522 1523 1523 1524 1526 1526 1526 1526 1527 1528 1530 1531 1533 1534 1535 1536 1537 1538 1539 1539 1540 1540 1541 1541 1541 1541 1542 1542 1542 1542 1542 1543 1543 1543 1543 1543 1544 1544 1544
1513 1515 1513 1512 1511 1512 1515 1517 1519 1518 1520 1522 1523 1523 1525 1525 1525 1525 1527 1528 1530 1531 1533 1534 1535 1536 1537 1538 1538 1539 1540 1540 1540 1540 1541 1541 1541 1541 1542 1542 1542 1542 1542 1543 1543 1543 1543 1544 1544
1514 1512 1509 1508 1509 1513 1516 1518 1519 1518 1520 1522 1523 1523 1525 1524 1524 1525 1527 1528 1530 1531 1533 1534 1535 1536 1537 1537 1538 1538 1539 1539 1540 1540 1540 1540 1540 1541 1541 1541 1542 1542 1542 1542 1543 1543 1543 1543 1544
1513 1510 1506 1505 1508 1511 1515 1518 1518 1517 1519 1521 1522 1523 1524 1524 1524 1525 1527 1528 1530 1531 1532 1533 1534 1535 1536 1537 1537 1538 1538 1539 1539 1539 1539 1540 1540 1540 1540 1541 1541 1541 1542 1542 1542 1542 1543 1543 1543
1511 1510 1508 1507 1508 1509 1515 1517 1518 1518 1519 1521 1522 1522 1523 1524 1524 1525 1527 1528 1530 1531 1532 1533 1534 1535 1535 1536 1537 1537 1537 1538 1538 1538 1538 1539 1539 1539 1539 1540 1540 1540 1540 1541 1541 1541 1542 1542 1543
1510 1510 1505 1506 1507 1509 1514 1516 1518 1518 1520 1520 1521 1522 1522 1522 1523 1525 1526 1528 1529 1530 1531 1532 1533 1534 1534 1535 1535 1536 1536 1537 1537 1537 1537 1538 1538 1538 1538 1538 1539 1539 1539 1539 1540 1540 1540 1541 1541
1510 1506 1504 1509 1510 1511 1514 1515 1517 1518 1519 1520 1521 1520 1520 1521 1522 1524 1525 1526 1527 1528 1530 1530 1531 1532 1533 1534 1534 1535 1535 1535 1535 1536 1536 1536 1537 1537 1537 1537 1537 1538 1538 1538 1538 1539 1539 1539 1540
1509 1506 1509 1512 1513 1513 1514 1516 1517 1516 1517 1519 1519 1519 1519 1520 1521 1522 1524 1525 1526 1527 1528 1529 1530 1531 1531 1532 1532 1533 1533 1533 1534 1534 1534 1534 1535 1535 1535 1536 1536 1536 1536 1536 1536 1537 1537 1538 1538
1509 1510 1511 1512 1513 1514 1514 1515 1517 1517 1518 1518 1518 1518 1518 1519 1520 1521 1522 1523 1524 1525 1526 1527 1528 1529 1529 1530 1530 1531 1531 1531 1532 1532 1532 1533 1533 1533 1533 1534 1534 1534 1534 1534 1535 1535 1536 1536 1537
1508 1510 1512 1513 1513 1514 1515 1515 1516 1517 1517 1517 1516 1517 1517 1518 1519 1520 1521 1522 1522 1523 1524 1525 1526 1526 1527 1527 1528 1528 1529 1529 1530 1530 1530 1531 1531 1531 1531 1532 1532 1532 1532 1532 1533 1533 1533 1534 1535
1509 1511 1512 1513 1513 1514 1514 1515 1516 1515 1516 1516 1515 1515 1516 1516 1517 1518 1518 1519 1520 1521 1522 1523 1523 1524 1525 1525 1526 1526 1527 1527 1527 1528 1528 1528 1529 1529 1529 1529 1529 1529 1530 1530 1531 1531 1531 1532 1532
1510 1510 1510 1511 1512 1513 1514 1512 1514 1515 1515 1515 1515 1514 1515 1515 1515 1515 1516 1517 1517 1518 1519 1520 1521 1521 1522 1523 1523 1524 1524 1525 1525 1526 1526 1526 1526 1526 1526 1526 1527 1527 1527 1527 1528 1528 1529 1529 1530
1509 1506 1504 1508 1511 1512 1514 1503 1511 1513 1513 1514 1514 1514 1514 1513 1513 1514 1514 1515 1515 1516 1517 1517 1518 1519 1519 1520 1521 1521 1522 1522 1523 1523 1523 1523 1523 1524 1524 1523 1524 1524 1524 1524 1525 1526 1526 1527 1527
1504 1501 1500 1505 1510 1510 1509 1503 1511 1512 1512 1512 1513 1513 1512 1512 1512 1512 1512 1513 1513 1513 1514 1515 1515 1516 1516 1517 1518 1518 1519 1519 1520 1520 1520 1520 1520 1520 1520 1521 1521 1521 1521 1522 1522 1523 1523 1524 1524
1499 1498 1500 1502 1507 1509 1506 1505 1509 1511 1511 1511 1511 1511 1511 1510 1510 1510 1510 1510 1511 1511 1511 1512 1512 1513 1513 1514 1515 1516 1516 1516 1517 1517 1517 1517 1517 1517 1517 1517 1518 1518 1518 1519 1519 1520 1520 1521 1521
1502 1501 1499 1502 1508 1508 1504 1503 1506 1508 1509 1509 1509 1509 1509 1509 1509 1509 1508 1508 1508 1508 1508 1509 1509 1510 1510 1511 1512 1512 1513 1513 1514 1514 1514 1514 1514 1514 1514 1514 1514 1515 1515 1516 1516 1516 1517 1518 1519
1504 1502 1500 1504 1508 1507 1504 1503 1504 1506 1507 1508 1508 1508 1508 1508 1507 1506 1506 1506 1506 1506 1506 1506 1506 1506 1507 1508 1508 1509 1510 1510 1510 1510 1510 1510 1510 1510 1510 1510 1510 1511 1512 1512 1513 1513 1513 1514 1515
1504 1503 1502 1505 1507 1508 1506 1496 1499 1503 1506 1507 1507 1507 1507 1507 1506 1505 1505 1504 1504 1503 1503 1503 1503 1503 1504 1505 1505 1506 1506 1507 1507 1507 1507 1507 1507 1507 1507 1507 1507 1507 1508 1508 1509 1510 1511 1511 1512
1502 1506 1507 1507 1505 1498 1503 1489 1490 1499 1502 1505 1506 1506 1506 1506 1505 1504 1503 1502 1502 1501 1501 1501 1501 1501 1501 1502 1502 1502 1502 1502 1503 1503 1503 1503 1503 1503 1503 1503 1504 1504 1504 1505 1506 1506 1507 1508 1509
1507 1510 1509 1507 1504 1501 1501 1498 1484 1499 1499 1502 1505 1505 1505 1505 1504 1503 1502 1501 1500 1500 1499 1498 1498 1498 1498 1498 1499 1499 1499 1499 1499 1499 1499 1499 1500 1500 1500 1500 1500 1500 1501 1501 1502 1502 1503 1504 1505
1511 1511 1509 1507 1504 1497 1496 1496 1481 1493 1498 1500 1504 1505 1504 1504 1503 1502 1501 1500 1499 1498 1497 1497 1496 1496 1495 1496 1495 1495 1495 1495 1495 1495 1495 1496 1495 1496 1496 1496 1496 1496 1497 1497 1498 1498 1499 1500 1501
1510 1505 1498 1495 1493 1487 1502 1498 1491 1499 1503 1503 1505 1505 1504 1503 1502 1501 1499 1498 1497 1496 1495 1494 1494 1493 1493 1493 1492 1492 1492 1492 1491 1491 1492 1491 1491 1491 1491 1492 1492 1492 1493 1493 1493 1494 1495 1495 1496
1509 1506 1500 1493 1485 1483 1501 1493 1493 1504 1505 1505 1505 1505 1504 1503 1502 1500 1499 1497 1496 1494 1493 1492 1492 1491 1490 1490 1489 1489 1488 1488 1488 1488 1488 1487 1487 1487 1487 1487 1488 1488 1488 1489 1489 1489 1490 1490 1491
1509 1508 1511 1506 1508 1501 1485 1493 1498 1503 1504 1505 1505 1505 1504 1503 1501 1500 1498 1496 1495 1493 1492 1490 1489 1489 1488 1487 1486 1485 1485 1484 1484 1484 1484 1483 1483 1483 1483 1483 1483 1483 1484 1484 1484 1484 1485 1486 1486
1514 1512 1511 1507 1500 1489 1482 1490 1489 1499 1501 1504 1504 1504 1504 1503 1501 1499 1497 1495 1494 1492 1490 1489 1488 1486 1485 1484 1483 1482 1481 1481 1480 1480 1479 1479 1479 1479 1478 1478 1479 1479 1479 1479 1479 1480 1480 1481 1481
1515 1516 1512 1507 1504 1494 1485 1486 1498 1500 1502 1503 1504 1504 1504 1502 1500 1498 1496 1494 1492 1491 1489 1487 1485 1484 1482 1481 1480 1478 1477 1477 1476 1476 1475 1474 1474 1474 1474 1474 1474 1474 1474 1474 1474 1475 1475 1476 1476
1516 1514 1513 1507 1505 1506 1498 1495 1503 1504 1504 1504 1504 1504 1503 1501 1500 1498 1495 1493 1491 1489 1487 1485 1483 1481 1480 1478 1476 1475 1474 1473 1472 1471 1471 1470 1469 1469 1469 1469 1468 1468 1468 1468 1469 1469 1470 1471 1471